FENGYUN 1C DEB, 30108

Orbit data source: Space-Track

FENGYUN 1C DEB, 30108 is space debris in SSO originally from a launch on Mon, 10 May 1999 UTC launched from the Taiyaun Space Center, China (TSC). Fengyun 1C debris stems from the Chinese weather satellite Fengyun-1C, which was intentionally destroyed by a Chinese anti-satellite missile in 2007. This event dramatically increased the amount of space debris, with thousands of trackable fragments posing hazards to satellites and human spaceflight. The Fengyun 1C debris cloud has become a focal point in discussions about space sustainability and the need for international regulations to prevent the creation of new debris.

Loading next visibility...
Identifier
30108, 1999-025RM
Orbit
SSO
Country
Flag of CNCN / PRC
Related business
Manufacturer
Unknown
Mission
Spacecraft
Bus & Motor
Unknown
Mass
Unknown
Launch date (UTC)
1999-05-10 (27 years ago)
Launch vehicle
Unknown
Launch site
Taiyaun Space Center, China (TSC)
Object type
Payload
Rocket body
Debris
Shape & HBR
Unknown shape, 0.1 m
Radar Cross Section
Medium (>0.1 m² and <1 m²)

Expand to show TLE details & history
Last TLE update: 21 hours ago

TLE from 21 hours ago
0 FENGYUN 1C DEB
1 30108U 99025RM  26168.93277692  .00000310  00000-0  14503-3 0  9995
2 30108  98.6762 155.3484 0196058 203.6820 212.6000 14.17443105  2498
Epoch: 2026-06-17T22:23Z
TLE epoch observation values (Epoch: 2026-06-17T22:23:11.925Z)
Latitude
54.26568°
Longitude
-98.81515°
Altitude
962.849 km
Speed
7.314 km/s
True Right ascension
09h 32m 40s
True Declination
54° 06' 25"
Sunlit
Object was in daylight at epoch
Visualization orbit readout
Latitude
Unknown
Longitude
Unknown
Altitude
Unknown
Speed
Unknown
Apparent Right ascension
Unknown
Apparent Declination
Unknown
Sunlit
N/A
Visualization observer readout
Local Sidereal Time
05:44:50
Azimuth
Unknown
Elevation
Unknown
Doppler factor
Unknown
Orbital elements
Apogee altitude
972.516 km
Perigee altitude
689.828 km
Semi-major axis
7,209.309 km
Eccentricity
0.01961
Inclination
98.6762°
RAAN
155.3484°
Arg. of periapsis
203.682°
True anomaly
211.41415°
Mean anomaly
212.6°
Eccentric anomaly
212.00465°
Mean motion
3.54571 °/min
Orbital period
101.53 mins
BSTAR
0.00014503
Loading maneuver chart data...
Computing Atmospheric mass density...
Loading historical data...
Loading historical data...
Loading historical data...
Loading historical data...
Loading historical data...
Loading historical data...
Loading historical data...

Documentation

Showing up to 5 results
|